Kezdőlap
METAR-TAF:

METAR-TAF

Repülőterek :

Marshfield Municipal Airport

Marshfield, Wisconsin, Amerikai Egyesült Államok

földrajzi szélesség: 44-38-17N, földrajzi hosszúság: 090-11-15W, magasság: 389 m

Jelenlegi meteorológiai megfigyelések

A jelentés 32 perccel ezelõtt készült, 16:54 UTC
Keleti szél 7 kt
Hőmérséklet 23°C
Páratartalom 73%
Légköri nyomás 1020 hPa
Látótávolság: 16.1 km
Derült ég

METAR: KMFI 131654Z AUTO 10007KT 10SM CLR 23/18 A3012 RMK AO2 SLP196 T02280178

Idő: 12:26 (17:26 UTC)


TAF: hiányzik

Meteorológiai megfigyelések és előrejelzések több, mint 4000 repülőtéren (METAR és TAF jelentéseket).

A térképen piros és sárga pontok jelzik az elérhető meteorológiai állomásokat.

Mozgassa az egeret a pont fölött, hogy megjelenjen az állomás neve.

Azután kattintson az időjárási megfigyelések és előrejelzések megtekintéséhez.

A térkép megváltoztatása: kattintson a fekete keresztel jelölt zöld gombra ráközelítéshez, a vonallal jelölt zöld gombra távolításhoz, vagy a zöld nyilakra a szomszédos térképek eléréséhez.


METAR-TAF: